Location: Hillern
(53.0557°N, 9.8577°E)
Time: 20:37:44
(UTC+00:00)

USA 229 - Pass Details

Date: 19 May 2025
Orbit: 872 x 1339 km, 63.4° (Epoch: 10 June)

Event Time Altitude Azimuth Distance (km) Brightness Sun altitude
Exits shadow 23:20:52 23° 205° (SSW) 1,878 4.5 -17.0°
Maximum altitude 23:24:46 66° 129° (SE) 1,078 3.5 -16.9°
Drops below altitude 10° 23:31:34 10° 49° (NE) 2,933 6.6 -16.9°
Sets 23:34:24 0° 47° (NE) 3,966 7.4 -16.9°
